TimeEDT,TemperatureF,Dew PointF,Humidity,Sea Level PressureIn,VisibilityMPH,Wind Direction,Wind SpeedMPH,Gust SpeedMPH,PrecipitationIn,Events,Conditions,WindDirDegrees,DateUTC
12:54 AM,55.9,43.0,62,30.07,10.0,South,6.9,-,N/A,,Mostly Cloudy,170,2013-05-07 04:54:00
1:54 AM,57.9,43.0,58,30.06,10.0,SW,5.8,-,N/A,,Mostly Cloudy,230,2013-05-07 05:54:00
2:54 AM,59.0,43.0,55,30.06,10.0,SW,4.6,-,N/A,,Mostly Cloudy,220,2013-05-07 06:54:00
3:54 AM,57.9,44.1,60,30.06,10.0,Calm,Calm,-,N/A,,Mostly Cloudy,0,2013-05-07 07:54:00
4:54 AM,55.0,45.0,69,30.07,10.0,Calm,Calm,-,N/A,,Mostly Cloudy,0,2013-05-07 08:54:00
5:54 AM,54.0,46.0,75,30.08,10.0,Calm,Calm,-,N/A,,Mostly Cloudy,0,2013-05-07 09:54:00
6:54 AM,55.9,48.9,77,30.09,10.0,Calm,Calm,-,N/A,,Mostly Cloudy,0,2013-05-07 10:54:00
7:54 AM,62.1,50.0,65,30.10,10.0,Calm,Calm,-,N/A,,Mostly Cloudy,0,2013-05-07 11:54:00
8:54 AM,64.9,50.0,58,30.11,10.0,Calm,Calm,-,N/A,,Mostly Cloudy,0,2013-05-07 12:54:00
9:54 AM,66.9,50.0,54,30.12,10.0,SE,3.5,-,N/A,,Mostly Cloudy,140,2013-05-07 13:54:00
10:54 AM,71.1,50.0,47,30.11,10.0,ENE,5.8,-,N/A,,Mostly Cloudy,70,2013-05-07 14:54:00
11:54 AM,72.0,50.0,46,30.09,10.0,ENE,9.2,-,N/A,,Mostly Cloudy,60,2013-05-07 15:54:00
12:54 PM,73.9,48.9,41,30.07,10.0,East,8.1,17.3,N/A,,Mostly Cloudy,80,2013-05-07 16:54:00
1:54 PM,75.9,48.9,38,30.05,10.0,East,12.7,-,N/A,,Mostly Cloudy,80,2013-05-07 17:54:00
2:54 PM,78.1,48.9,36,30.03,10.0,ENE,9.2,-,N/A,,Mostly Cloudy,60,2013-05-07 18:54:00
3:54 PM,79.0,46.9,32,30.00,10.0,NE,11.5,-,N/A,,Mostly Cloudy,50,2013-05-07 19:54:00
4:54 PM,79.0,46.9,32,29.99,10.0,East,8.1,-,N/A,,Mostly Cloudy,80,2013-05-07 20:54:00
5:54 PM,75.9,51.1,42,29.99,10.0,NE,15.0,-,N/A,,Mostly Cloudy,40,2013-05-07 21:54:00
6:54 PM,73.9,52.0,46,29.99,10.0,NNE,12.7,18.4,N/A,,Mostly Cloudy,30,2013-05-07 22:54:00
7:54 PM,72.0,51.1,48,30.00,10.0,NNE,11.5,-,N/A,,Mostly Cloudy,30,2013-05-07 23:54:00
8:54 PM,68.0,51.1,55,30.01,10.0,NNE,9.2,-,N/A,,Mostly Cloudy,30,2013-05-08 00:54:00
9:54 PM,66.0,50.0,56,30.02,10.0,NE,8.1,-,N/A,,Mostly Cloudy,50,2013-05-08 01:54:00
10:54 PM,64.9,48.9,56,30.02,10.0,ENE,8.1,-,N/A,,Mostly Cloudy,70,2013-05-08 02:54:00
11:54 PM,64.0,50.0,60,30.02,10.0,East,6.9,-,N/A,,Mostly Cloudy,80,2013-05-08 03:54:00